Lid_Strength_Index
8 8 8 8 9 10 10 10 11 12 11 10 9 9 9 9 7 7 9 7 5 5 5 5 4 4 4 3 3 3 2 2 2 2 1 1 1 0
9 8 9 10 9 9 9 9 9 10 11 9 8 8 8 8 7 9 9 6 6 5 4 4 4 3 3 3 3 3 2 2 2 1 1 1 0 -0
9 8 8 8 8 8 8 9 10 10 11 10 10 10 10 10 10 9 8 9 9 4 4 3 3 2 1 2 2 2 2 2 2 1 1 0 0 -0
8 8 9 8 9 9 10 11 11 11 12 13 12 12 11 10 10 10 8 6 7 4 2 2 2 2 2 1 1 1 1 1 1 1 1 1 1 0
9 9 10 10 11 11 11 12 12 10 12 13 12 11 11 10 10 9 8 7 5 3 2 2 2 1 1 1 1 1 0 1 2 1 1 1 1 0
10 10 10 11 11 12 10 11 10 11 11 12 12 11 10 9 9 9 8 8 8 5 4 2 1 1 1 1 0 1 1 1 2 2 2 2 2 1
10 10 9 7 6 7 9 10 10 11 11 11 11 10 10 10 10 9 9 9 9 8 8 7 5 4 4 2 2 2 1 2 2 2 2 3 2 2
11 11 10 9 8 7 7 7 8 10 9 8 8 9 10 10 10 9 9 10 11 8 9 8 7 7 6 6 3 2 2 2 2 3 3 3 3 3
13 12 11 10 10 11 9 7 7 5 5 8 10 11 11 10 10 11 11 11 10 9 8 8 7 8 7 5 3 3 3 3 3 3 3 3 3 3
12 12 12 12 11 10 10 10 9 8 8 7 9 9 9 9 8 7 7 8 8 7 6 8 6 7 7 6 4 3 3 2 3 3 3 3 3 3
12 12 12 13 9 8 10 9 9 9 6 4 4 4 3 3 4 7 8 8 8 8 8 7 8 7 6 7 6 4 3 3 3 3 3 3 4 4
13 12 9 10 8 7 8 8 8 8 8 6 5 5 4 5 3 5 6 7 8 10 9 8 7 7 8 8 8 8 8 4 4 4 4 4 4 7
13 13 12 8 7 6 6 8 8 6 7 7 7 8 7 7 6 5 5 6 7 7 6 6 8 8 9 9 7 8 8 9 9 8 5 5 4 5
12 12 10 8 7 7 7 5 5 6 8 9 10 9 8 7 8 7 7 6 5 6 5 6 8 8 9 10 10 9 9 9 9 9 9 7 5 5
11 9 9 8 8 8 7 6 7 9 9 9 10 9 8 7 7 7 7 7 7 6 5 5 6 6 8 9 10 10 10 9 9 9 9 9 9 9
10 12 10 9 9 9 9 8 8 8 8 10 10 10 10 9 9 9 10 9 9 8 7 6 7 7 7 7 8 9 8 9 9 9 9 9 9 9
10 11 12 12 11 10 9 8 8 8 8 8 9 10 10 10 10 9 9 10 9 9 8 7 7 6 6 7 7 8 8 8 8 8 8 9 9 9
11 13 13 12 11 10 9 9 8 7 8 8 9 9 9 9 9 8 9 10 9 10 10 8 8 9 7 7 5 7 8 8 7 7 8 9 10 8
12 12 12 12 11 9 8 8 8 8 7 8 8 8 9 9 9 9 9 9 9 10 9 9 9 8 9 11 8 4 7 7 7 8 8 9 9 8
12 12 12 10 9 9 8 8 8 8 8 8 8 8 9 9 9 9 9 9 10 9 9 9 9 8 8 9 9 7 5 7 7 8 8 7 6 5
12 11 10 9 9 8 8 8 8 8 7 8 8 8 8 9 9 9 9 8 8 9 10 10 9 5 6 6 8 8 7 5 6 8 8 7 7 7
11 11 10 9 9 8 8 7 8 8 8 8 7 8 8 8 9 8 8 9 8 9 9 8 8 8 8 9 10 9 8 7 5 4 4 5 7 9
11 11 10 9 8 8 8 8 8 8 8 7 8 7 8 8 8 8 8 8 8 8 8 8 8 7 8 9 9 9 9 8 7 7 7 4 3 3